Location: Monteux
(44.0348°N, 4.9972°E)
Time: 17:13:01
(UTC+00:00)

H-2A R/B - Pass Details

Date: 30 November 2020
Orbit: 733 x 836 km, 98.2° (Epoch: 17 January)

Event Time Altitude Azimuth Distance (km) Brightness Sun altitude
Rises 19:39:15 0° 200° (SSW) 3,325 5.5 -38.1°
Enters shadow 19:40:03 - 203° (SSW) 3,042 5.3 -38.3°
Exits shadow 19:47:18 22° 285° (WNW) 1,684 4.2 -39.6°
Drops below altitude 10° 19:50:19 10° 319° (NW) 2,343 4.9 -40.1°
Sets 19:53:04 0° 334° (NNW) 3,257 5.6 -40.6°
